Crosby, ND

1:08 PM CDT on June 25, 2017 (GMT -0500)
Crosby

Weather History for KD50 - December, 2012

Change the Weather History Date:

Monday, December 3, 2012

  Actual Average (KISN) Record (KISN)
Temperature  
Mean Temperature 26 °F -  
Max Temperature 41 °F 29 °F 57 °F (1941)
Min Temperature 12 °F 8 °F -24 °F (2006)
Degree Days  
Heating Degree Days 38    
Moisture  
Dew Point 19 °F    
Average Humidity 82    
Maximum Humidity 100    
Minimum Humidity 68    
Precipitation  
Precipitation 0.07 in - - ()
Sea Level Pressure  
Sea Level Pressure 29.70 in    
Wind  
Wind Speed 16 mph (WNW)    
Max Wind Speed 29 mph    
Max Gust Speed 38 mph    
Visibility 10 miles    
Events Rain    
Averages and records for this station are not official NWS values.
T = Trace of Precipitation, MM = Missing Value Source: NWS Daily Summary

Daily Weather History Graph

Daily Weather History Graph

Search for Another Location

Airport or City:

Trip Planner

Search our weather history database for the weather conditions in past years. The results will help you decide how hot, cold, wet, or windy it might be!

Date:

Astronomy

Dec. 03, 2012 Rise Set
Actual Time 8:28 AM CST 4:57 PM CST
Civil Twilight 7:52 AM CST 5:34 PM CST
Nautical Twilight 7:12 AM CST 6:14 PM CST
Astronomical Twilight 6:34 AM CST 6:52 PM CST
Moon 10:01 PM CST (12/3) 11:40 AM CST (12/3)
Length of Visible Light 9h 41m
Length of Day
8h 28m
Waning Gibbous, 78% of the Moon is Illuminated
Dec 3
Waning Gibbous
Dec 6
Last Quarter
Dec 13
New
Dec 19
First Quarter
Dec 28
Full

Hourly Weather History & Observations

Time (CST) Temp. Windchill Dew Point Humidity Pressure Visibility Wind Dir Wind Speed Gust Speed Precip Events Conditions
12:15 AM 41.0 °F 33.5 °F 33.8 °F 76% 29.32 in 10.0 mi West 13.8 mph - N/A   Mostly Cloudy
12:35 AM 39.2 °F 31.6 °F 35.6 °F 87% 29.31 in 10.0 mi WNW 12.7 mph - N/A Rain Light Rain
12:55 AM 37.4 °F 28.9 °F 37.4 °F 100% 29.33 in 10.0 mi WNW 13.8 mph - N/A Rain Light Rain
1:15 AM 37.4 °F 30.3 °F 37.4 °F 100% 29.36 in 6.0 mi West 10.4 mph - 0.01 in Rain Rain
1:35 AM 39.2 °F 31.6 °F 39.2 °F 100% 29.37 in 5.0 mi West 12.7 mph - 0.05 in Rain Light Rain
1:55 AM 37.4 °F 29.3 °F 37.4 °F 100% 29.38 in 9.0 mi WSW 12.7 mph - 0.07 in Rain Light Rain
2:15 AM 37.4 °F 29.3 °F 37.4 °F 100% 29.39 in 10.0 mi WSW 12.7 mph - N/A   Mostly Cloudy
2:35 AM 37.4 °F 27.8 °F 37.4 °F 100% 29.40 in 10.0 mi West 17.3 mph - N/A   Mostly Cloudy
2:55 AM 39.2 °F 29.8 °F 37.4 °F 93% 29.39 in 10.0 mi West 18.4 mph 21.9 mph N/A   Overcast
3:15 AM 37.4 °F 27.5 °F 35.6 °F 93% 29.41 in 10.0 mi West 18.4 mph 25.3 mph N/A   Mostly Cloudy
3:35 AM 37.4 °F 26.9 °F 35.6 °F 93% 29.41 in 10.0 mi West 20.7 mph 27.6 mph N/A   Partly Cloudy
3:55 AM 37.4 °F 27.2 °F 33.8 °F 87% 29.44 in 10.0 mi West 19.6 mph 29.9 mph N/A   Clear
4:15 AM 37.4 °F 27.5 °F 32.0 °F 81% 29.46 in 10.0 mi West 18.4 mph 24.2 mph N/A   Scattered Clouds
4:35 AM 37.4 °F 27.8 °F 32.0 °F 81% 29.47 in 10.0 mi West 17.3 mph 21.9 mph N/A   Partly Cloudy
4:55 AM 37.4 °F 28.2 °F 32.0 °F 81% 29.47 in 10.0 mi West 16.1 mph - N/A   Clear
5:15 AM 37.4 °F 27.2 °F 32.0 °F 81% 29.48 in 10.0 mi West 19.6 mph 25.3 mph N/A   Clear
5:35 AM 35.6 °F 25.2 °F 32.0 °F 87% 29.48 in 10.0 mi West 18.4 mph - N/A   Clear
5:55 AM 35.6 °F 26.2 °F 32.0 °F 87% 29.50 in 10.0 mi West 15.0 mph - N/A   Clear
6:15 AM 33.8 °F 24.8 °F 32.0 °F 93% 29.52 in 10.0 mi WNW 12.7 mph - N/A   Clear
6:35 AM 33.8 °F 24.8 °F 32.0 °F 93% 29.53 in 10.0 mi NW 12.7 mph - N/A   Clear
6:55 AM 32.0 °F 23.6 °F 30.2 °F 93% 29.55 in 10.0 mi NNW 10.4 mph - N/A   Clear
7:15 AM 30.2 °F 17.4 °F 26.6 °F 86% 29.56 in 10.0 mi NW 20.7 mph 29.9 mph N/A   Clear
7:35 AM 28.4 °F 15.8 °F 24.8 °F 86% 29.57 in 10.0 mi WNW 18.4 mph 26.5 mph N/A   Clear
7:55 AM 28.4 °F 15.4 °F 24.8 °F 86% 29.58 in 10.0 mi WNW 19.6 mph 26.5 mph N/A   Partly Cloudy
8:15 AM 26.6 °F 10.6 °F 23.0 °F 86% 29.59 in 10.0 mi WNW 28.8 mph 35.7 mph N/A   Mostly Cloudy
8:35 AM 26.6 °F 11.4 °F 23.0 °F 86% 29.61 in 10.0 mi WNW 25.3 mph 34.5 mph N/A   Scattered Clouds
8:55 AM 24.8 °F 8.4 °F 19.4 °F 80% 29.62 in 10.0 mi WNW 27.6 mph 38.0 mph N/A   Overcast
9:15 AM 23.0 °F 6.3 °F 17.6 °F 80% 29.62 in 10.0 mi WNW 26.5 mph 35.7 mph N/A   Mostly Cloudy
9:35 AM 23.0 °F 6.6 °F 15.8 °F 74% 29.65 in 10.0 mi WNW 25.3 mph 35.7 mph N/A   Scattered Clouds
9:55 AM 21.2 °F 4.5 °F 15.8 °F 80% 29.67 in 10.0 mi WNW 24.2 mph 28.8 mph N/A   Mostly Cloudy
10:15 AM 21.2 °F 6.8 °F 15.8 °F 80% 29.68 in 10.0 mi WNW 17.3 mph 26.5 mph N/A   Overcast
10:35 AM 21.2 °F 4.9 °F 15.8 °F 80% 29.69 in 10.0 mi WNW 23.0 mph 28.8 mph N/A   Overcast
10:55 AM 21.2 °F 5.2 °F 14.0 °F 74% 29.70 in 10.0 mi NW 21.9 mph 29.9 mph N/A   Overcast
11:15 AM 21.2 °F 5.2 °F 14.0 °F 74% 29.71 in 10.0 mi WNW 21.9 mph 26.5 mph N/A   Overcast
11:35 AM 19.4 °F 2.1 °F 14.0 °F 80% 29.71 in 10.0 mi NW 24.2 mph - N/A   Overcast
11:55 AM 19.4 °F 1.4 °F 14.0 °F 80% 29.71 in 10.0 mi WNW 26.5 mph 32.2 mph N/A   Overcast
12:15 PM 19.4 °F 2.5 °F 14.0 °F 80% 29.72 in 10.0 mi NW 23.0 mph 33.4 mph N/A   Overcast
12:35 PM 19.4 °F 2.1 °F 12.2 °F 74% 29.73 in 10.0 mi NW 24.2 mph 29.9 mph N/A   Mostly Cloudy
1:15 PM 19.4 °F 2.5 °F 12.2 °F 74% 29.74 in 10.0 mi NW 23.0 mph 31.1 mph N/A   Overcast
1:35 PM 19.4 °F 2.5 °F 10.4 °F 68% 29.76 in 10.0 mi NW 23.0 mph 28.8 mph N/A   Overcast
1:55 PM 19.4 °F 4.5 °F 12.2 °F 74% 29.77 in 10.0 mi WNW 17.3 mph 23.0 mph N/A   Overcast
2:15 PM 19.4 °F 4.1 °F 12.2 °F 74% 29.78 in 10.0 mi NW 18.4 mph 26.5 mph N/A   Overcast
2:35 PM 19.4 °F 3.2 °F 10.4 °F 68% 29.78 in 10.0 mi NW 20.7 mph 26.5 mph N/A   Overcast
2:55 PM 17.6 °F 0.5 °F 10.4 °F 73% 29.79 in 10.0 mi NW 21.9 mph 27.6 mph N/A   Overcast
3:15 PM 17.6 °F 1.7 °F 10.4 °F 73% 29.79 in 10.0 mi NW 18.4 mph 24.2 mph N/A   Scattered Clouds
3:35 PM 17.6 °F 2.2 °F 10.4 °F 73% 29.80 in 10.0 mi NW 17.3 mph - N/A   Clear
3:55 PM 17.6 °F 2.7 °F 10.4 °F 73% 29.81 in 10.0 mi NW 16.1 mph 20.7 mph N/A   Clear
4:15 PM 17.6 °F 4.3 °F 10.4 °F 73% 29.82 in 10.0 mi WNW 12.7 mph - N/A   Clear
4:35 PM 17.6 °F 5.0 °F 10.4 °F 73% 29.84 in 10.0 mi NW 11.5 mph - N/A   Clear
4:55 PM 15.8 °F 4.2 °F 10.4 °F 79% 29.85 in 10.0 mi NW 9.2 mph - N/A   Clear
5:15 PM 15.8 °F 5.1 °F 10.4 °F 79% 29.86 in 10.0 mi NW 8.1 mph - N/A   Clear
5:35 PM 15.8 °F 4.2 °F 10.4 °F 79% 29.87 in 10.0 mi NW 9.2 mph - N/A   Mostly Cloudy
5:55 PM 15.8 °F 5.1 °F 10.4 °F 79% 29.87 in 10.0 mi NW 8.1 mph - N/A   Overcast
6:15 PM 17.6 °F 5.7 °F 10.4 °F 73% 29.88 in 10.0 mi NW 10.4 mph - N/A   Overcast
6:35 PM 17.6 °F 4.3 °F 10.4 °F 73% 29.89 in 10.0 mi NW 12.7 mph - N/A   Overcast
6:55 PM 17.6 °F 5.0 °F 10.4 °F 73% 29.90 in 10.0 mi NW 11.5 mph - N/A   Overcast
7:15 PM 17.6 °F 5.7 °F 10.4 °F 73% 29.92 in 10.0 mi NW 10.4 mph - N/A   Overcast
7:35 PM 15.8 °F 4.2 °F 10.4 °F 79% 29.93 in 10.0 mi NNE 9.2 mph - N/A   Overcast
7:55 PM 14.0 °F 2.0 °F 10.4 °F 86% 29.94 in 10.0 mi North 9.2 mph - N/A   Overcast
8:15 PM 14.0 °F 0.5 °F 10.4 °F 86% 29.95 in 10.0 mi NNW 11.5 mph - N/A   Overcast
8:35 PM 14.0 °F 1.2 °F 8.6 °F 79% 29.95 in 10.0 mi NNW 10.4 mph - N/A   Overcast
8:55 PM 14.0 °F -0.8 °F 8.6 °F 79% 29.96 in 10.0 mi NNW 13.8 mph - N/A   Overcast
9:15 PM 14.0 °F 2.9 °F 8.6 °F 79% 29.97 in 10.0 mi NW 8.1 mph - N/A   Mostly Cloudy
9:35 PM 14.0 °F 1.2 °F 8.6 °F 79% 29.97 in 10.0 mi NNW 10.4 mph - N/A   Mostly Cloudy
9:55 PM 12.2 °F 0.7 °F 8.6 °F 85% 29.97 in 10.0 mi NNW 8.1 mph - N/A   Mostly Cloudy
10:15 PM 14.0 °F 2.0 °F 8.6 °F 79% 29.99 in 10.0 mi NNW 9.2 mph - N/A   Overcast
10:35 PM 12.2 °F 0.7 °F 8.6 °F 85% 30.00 in 10.0 mi NNW 8.1 mph - N/A   Overcast
10:55 PM 12.2 °F -2.5 °F 8.6 °F 85% 30.00 in 10.0 mi NNW 12.7 mph - N/A   Overcast
11:15 PM 12.2 °F -1.0 °F 6.8 °F 79% 30.01 in 10.0 mi NW 10.4 mph - N/A   Overcast
11:35 PM 12.2 °F -1.0 °F 8.6 °F 85% 30.02 in 10.0 mi NW 10.4 mph - N/A   Overcast
11:55 PM 12.2 °F -2.5 °F 6.8 °F 79% 30.03 in 10.0 mi NW 12.7 mph - N/A   Overcast